Home   Weather   Cork   Past weeks

Flag for Ireland Past Weather in Cork, Ireland — Yesterday and Last 2 Weeks

Now
56 °F

Low clouds.


Feels Like: 56 °F
Forecast: 54 / 66 °F
Wind: 3 mph from Southwest

Location: Cork Airport

Current Time: Jun 24, 2017 at 1:02:37 am

Latest Report: Jun 24, 2017 at 12:00 am


Visibility: 9 mi

Pressure: 29.98 "Hg

Humidity: 95%

Dew Point: 55 °F

Location of CorkLocation

Past Weather in Cork — Graph

°F

Cork Temperature Yesterday

Maximum temperature yesterday: 63 °F (at 4:00 pm)
Minimum temperature yesterday: 55 °F (at 1:00 am)
Average temperature yesterday: 59 °F

High & Low Weather Summary for the Past Weeks

 TemperatureHumidityPressure
High75 °F (Jun 19, 3:00 pm)99% (Jun 9, 3:00 am)30.35 "Hg (Jun 9, 3:00 am)
Low46 °F (Jun 9, 3:00 am)55% (Jun 22, 4:00 pm)29.60 "Hg (Jun 9, 12:00 am)
Average59 °F84%30.00 "Hg
* Reported Jun 8 11:00 pm — Jun 23 11:00 pm, Cork. Weather by CustomWeather, © 2017

Note: Actual official high and low records may vary slightly from our data, if they occured in-between our weather recording intervals... More about our weather records

Advertising

Cork Weather History for the Previous 24 Hours

Scroll right to see more
 ConditionsComfort  
Time TempWeatherWind HumidityBarometerVisibility
11:00 pm
Fri, Jun 23
56 °FPassing clouds.3 mph92%29.98 "Hg25 mi
10:00 pm59 °FPassing clouds.5 mph89%29.97 "Hg25 mi
9:00 pm60 °FOvercast.6 mph86%29.96 "Hg31 mi
8:00 pm62 °FOvercast.6 mph83%29.95 "Hg25 mi
7:00 pm62 °FOvercast.7 mph85%29.93 "Hg31 mi
6:00 pm62 °FOvercast.7 mph83%29.94 "Hg37 mi
5:00 pm63 °FOvercast.8 mph84%29.93 "Hg37 mi
4:00 pm63 °FOvercast.8 mph85%29.93 "Hg37 mi
3:00 pm62 °FOvercast.7 mph88%29.94 "Hg31 mi
2:00 pm62 °FLow clouds.7 mph85%29.95 "Hg31 mi
1:00 pm61 °FLight rain. Low clouds.8 mph90%29.95 "Hg31 mi
12:00 pm61 °FLow clouds.8 mph89%29.94 "Hg28 mi
11:00 am60 °FLow clouds.9 mph89%29.93 "Hg28 mi
10:00 am59 °FLow clouds.9 mph90%29.93 "Hg22 mi
9:00 am58 °FLow clouds.6 mph94%29.93 "Hg19 mi
8:00 am57 °FLow clouds.6 mph94%29.94 "Hg19 mi
7:00 am56 °FDrizzle. Low clouds.8 mph96%29.94 "Hg5 mi
6:00 am56 °FLow clouds.8 mph93%29.93 "Hg22 mi
5:00 am56 °FLow clouds.8 mph91%29.94 "Hg19 mi
4:00 am56 °FOvercast.8 mph87%29.93 "Hg19 mi
3:00 am56 °FOvercast.8 mph87%29.94 "Hg19 mi
2:00 am56 °FOvercast.7 mph87%29.96 "Hg19 mi
1:00 am55 °FOvercast.7 mph86%29.97 "Hg19 mi
Weather by CustomWeather, © 2017

See weather overviewHow to use our weather pages